EW7535 Weather Reports


Display with metric or nautical units.
time (UTC)temp
F
wind
direction
speed
MPH
gust
MPH
rain 1hr
in
rain 24hr
in
rain mn
in
humidity
%
barometer
mb
20260506230010 80 297 4.0 10.0 0.00 0.00 0.00 21 1010.4
20260506224509 79 281 2.0 14.0 0.00 0.00 0.00 23 1010.6
20260506223007 78 284 5.0 17.0 0.00 0.00 0.00 23 1010.7
20260506221536 79 258 8.0 14.0 0.00 0.00 0.00 23 1010.8
20260506220034 79 252 4.0 10.0 0.00 0.00 0.00 24 1010.8
20260506214530 78 240 4.0 15.0 0.00 0.00 0.00 25 1011.0
20260506213028 78 283 2.0 13.0 0.00 0.00 0.00 25 1011.3
20260506211526 79 243 3.0 9.0 0.00 0.00 0.00 25 1011.4
20260506210026 78 246 4.0 8.0 0.00 0.00 0.00 26 1011.6
20260506204520 78 309 1.0 8.0 0.00 0.00 0.00 27 1011.8
20260506203022 77 285 5.0 11.0 0.00 0.00 0.00 28 1012.0
20260506201520 76 264 4.0 12.0 0.00 0.00 0.00 28 1012.2
20260506200019 78 283 4.0 9.0 0.00 0.00 0.00 27 1012.3
20260506194550 77 271 3.0 9.0 0.00 0.00 0.00 29 1012.6
20260506193047 76 248 0.0 7.0 0.00 0.00 0.00 30 1012.7
20260506191517 76 297 3.0 6.0 0.00 0.00 0.00 30 1013.1
20260506190014 76 210 1.0 4.0 0.00 0.00 0.00 32 1013.1
20260506184510 74 264 4.0 15.0 0.00 0.00 0.00 33 1013.2
20260506183007 74 209 1.0 5.0 0.00 0.00 0.00 33 1013.4
20260506181505 72 256 2.0 5.0 0.00 0.00 0.00 34 1013.6
20260506180006 72 257 2.0 5.0 0.00 0.00 0.00 34 1013.8
20260506174533 72 217 1.0 5.0 0.00 0.00 0.00 37 1013.8
20260506173031 70 260 0.0 4.0 0.00 0.00 0.00 40 1013.8
20260506171542 70 297 1.0 4.0 0.00 0.00 0.00 40 1013.9
20260506170025 70 221 0.0 3.0 0.00 0.00 0.00 40 1013.9
20260506164522 68 240 0.0 0.0 0.00 0.00 0.00 43 1013.9
20260506163025 67 226 0.0 4.0 0.00 0.00 0.00 45 1013.9
20260506161525 67 292 0.0 3.0 0.00 0.00 0.00 43 1013.7
20260506160018 68 315 0.0 0.0 0.00 0.00 0.00 46 1013.9
20260506154514 67 221 0.0 2.0 0.00 0.00 0.00 47 1013.8
20260506153012 65 224 0.0 3.0 0.00 0.00 0.00 48 1013.8
20260506151508 65 229 0.0 3.0 0.00 0.00 0.00 49 1013.8
20260506150007 64 129 0.0 3.0 0.00 0.00 0.00 50 1013.7
20260506144504 63 124 2.0 6.0 0.00 0.00 0.00 51 1013.7
20260506143002 62 113 1.0 3.0 0.00 0.00 0.00 53 1013.8
20260506141558 61 126 0.0 3.0 0.00 0.00 0.00 55 1013.8
20260506140054 60 129 0.0 3.0 0.00 0.00 0.00 57 1013.7
20260506134615 57 136 0.0 0.0 0.00 0.00 0.00 63 1013.6
20260506133051 55 99 0.0 0.0 0.00 0.00 0.00 68 1013.5
20260506131605 53 109 0.0 0.0 0.00 0.00 0.00 71 1013.3
20260506130045 52 106 0.0 0.0 0.00 0.00 0.00 73 1013.2
20260506124542 52 99 0.0 1.0 0.00 0.01 0.00 72 1013.3
20260506123044 53 105 0.0 0.0 0.00 0.01 0.00 71 1013.0
20260506121539 53 80 0.0 0.0 0.00 0.01 0.00 71 1012.9
20260506120010 53 80 0.0 0.0 0.00 0.01 0.00 71 1012.8
20260506114504 53 104 0.0 0.0 0.00 0.02 0.00 69 1012.7
20260506113034 54 104 0.0 0.0 0.00 0.02 0.00 67 1012.6
20260506111526 54 105 0.0 0.0 0.00 0.02 0.00 64 1012.5
20260506110022 55 102 0.0 4.0 0.00 0.02 0.00 62 1012.3
20260506104521 55 105 0.0 0.0 0.00 0.04 0.00 61 1012.2
20260506103025 55 75 0.0 0.0 0.00 0.04 0.00 61 1012.1
20260506101516 56 307 0.0 0.0 0.00 0.04 0.00 58 1012.0
20260506100023 56 316 0.0 0.0 0.00 0.04 0.00 56 1011.8
20260506094516 55 70 0.0 0.0 0.00 0.07 0.00 58 1011.8
20260506093010 56 303 0.0 0.0 0.00 0.07 0.00 59 1011.8
20260506091507 56 287 0.0 0.0 0.00 0.07 0.00 56 1011.7
20260506090033 57 287 0.0 2.0 0.00 0.07 0.00 55 1011.7
20260506084531 58 297 1.0 4.0 0.00 0.10 0.00 54 1011.8
20260506083027 59 305 2.0 5.0 0.00 0.10 0.00 51 1011.7
20260506081531 59 265 3.0 6.0 0.00 0.10 0.00 50 1011.8
20260506073019 59 268 2.0 4.0 0.00 0.14 0.00 50 1011.8
20260506071518 60 304 3.0 6.0 0.00 0.14 0.00 50 1011.8
20260506061543 62 297 2.0 6.0 0.00 0.22 0.14 48 1011.5
20260506044537 65 296 5.0 8.0 0.00 0.31 0.14 43 1010.9
20260506043033 65 292 3.0 13.0 0.00 0.31 0.14 49 1010.7
20260506041538 65 295 5.0 13.0 0.00 0.31 0.14 49 1010.6
20260506040030 65 311 3.0 8.0 0.00 0.31 0.14 47 1010.3
20260506034529 66 298 2.0 5.0 0.00 0.31 0.14 43 1010.0
20260506033028 66 261 1.0 7.0 0.00 0.31 0.14 42 1009.8
20260506031534 67 295 2.0 7.0 0.00 0.31 0.14 40 1009.5
20260506030024 67 299 4.0 8.0 0.00 0.31 0.14 39 1009.3
20260506024536 67 281 4.0 8.0 0.00 0.34 0.14 38 1009.1
20260506023022 68 294 4.0 10.0 0.00 0.34 0.14 36 1008.9
20260506021522 69 289 6.0 11.0 0.00 0.34 0.14 34 1008.6
20260506020020 69 299 7.0 14.0 0.00 0.34 0.14 33 1008.4
20260506014518 70 292 5.0 11.0 0.00 0.36 0.14 34 1008.2
20260506013019 71 276 10.0 21.0 0.00 0.36 0.14 33 1008.1
20260506011539 72 304 10.0 20.0 0.00 0.36 0.14 34 1008.0
20260506010116 73 277 5.0 18.0 0.00 0.36 0.14 31 1007.8
20260506004600 73 299 6.0 16.0 0.00 0.36 0.14 30 1007.6
20260506003047 75 288 7.0 13.0 0.00 0.36 0.14 30 1007.4
20260506001545 74 289 10.0 19.0 0.00 0.36 0.14 30 1007.3
20260506000110 75 250 3.0 19.0 0.00 0.36 0.14 28 1007.3
20260505234546 76 288 5.0 11.0 0.00 0.36 0.14 28 1007.2
20260505233040 76 283 6.0 11.0 0.00 0.36 0.14 27 1007.1
20260505231510 76 290 9.0 22.0 0.00 0.36 0.14 26 1007.1